Weather History for Pineville, WV

Change the Weather History Date:

Saturday, February 18, 2012

  Actual Average (KBKW) Record (KBKW)
Temperature  
Mean Temperature 42 °F 35 °F  
Max Temperature 55 °F 44 °F 70 °F (1916)
Min Temperature 30 °F 26 °F -4 °F (1958)
Degree Days  
Heating Degree Days 22 30  
Month to date heating degree days 569  
Since 1 July heating degree days 3713  
Cooling Degree Days 0 0  
Month to date cooling degree days 0  
Year to date cooling degree days 0  
Moisture  
Dew Point 32 °F    
Average Humidity 74    
Maximum Humidity 100    
Minimum Humidity 36    
Precipitation  
Precipitation 0.00 in 0.10 in 0.70 in (2000)
Month to date precipitation 1.75  
Year to date precipitation 4.56  
Snow  
Snow 0.00 in - - ()
Month to date snowfall  
Since 1 September snowfall  
Snow Depth -    
Sea Level Pressure  
Sea Level Pressure 30.10 in    
Wind  
Wind Speed 0 mph (NW)    
Max Wind Speed 7 mph    
Max Gust Speed -    
Visibility 9 miles    
Events      
T = Trace of Precipitation, MM = Missing Value Source: NWS Daily Summary

Daily Weather History Graph

Daily Weather History Graph

Search for Another Location

Airport:

Trip Planner

Search our weather history database for the weather conditions in past years. The results will help you decide how hot, cold, wet, or windy it might be!

Date:

Astronomy

Feb. 18, 2012 Rise Set
Actual Time 7:12 AM EST 6:08 PM EST
Civil Twilight 6:46 AM EST 6:34 PM EST
Nautical Twilight 6:15 AM EST 7:05 PM EST
Astronomical Twilight 5:45 AM EST 7:35 PM EST
Moon 4:48 AM EST (2/18) 3:06 PM EST (2/18)
Length of Visible Light 11h 48m
Length of Day
10h 55m
Waning Crescent, 11% of the Moon is Illuminated
Feb 18
Waning Crescent
Feb 21
New
Feb 29
First Quarter
Mar 8
Full
Mar 14
Last Quarter

Hourly Weather History & Observations

Time (EST) Temp. Dew Point Humidity Pressure Visibility Wind Dir Wind Speed Gust Speed Precip Events Conditions
12:15 AM 32.0 °F 32.0 °F 100% 30.16 in 10.0 mi Calm Calm - N/A   Clear
12:35 AM 32.0 °F 32.0 °F 100% 30.15 in 10.0 mi Calm Calm - N/A   Clear
1:15 AM 32.0 °F 32.0 °F 100% 30.16 in 7.0 mi Calm Calm - N/A   Clear
1:35 AM 32.0 °F 32.0 °F 100% 30.16 in 10.0 mi Calm Calm - N/A   Clear
1:55 AM 32.0 °F 32.0 °F 100% 30.16 in 10.0 mi Calm Calm - N/A   Clear
2:15 AM 32.0 °F 32.0 °F 100% 30.15 in 10.0 mi Calm Calm - N/A   Clear
2:35 AM 32.0 °F 32.0 °F 100% 30.15 in 10.0 mi Calm Calm - N/A   Clear
2:55 AM 32.0 °F 32.0 °F 100% 30.15 in 10.0 mi Calm Calm - N/A   Clear
3:15 AM 32.0 °F 32.0 °F 100% 30.14 in 10.0 mi Calm Calm - N/A   Clear
3:35 AM 32.0 °F 32.0 °F 100% 30.13 in 10.0 mi Calm Calm - N/A   Clear
3:55 AM 32.0 °F 32.0 °F 100% 30.13 in 10.0 mi Calm Calm - N/A   Clear
4:15 AM 32.0 °F 32.0 °F 100% 30.13 in 10.0 mi Calm Calm - N/A   Clear
4:35 AM 32.0 °F 32.0 °F 100% 30.13 in 7.0 mi Calm Calm - N/A   Scattered Clouds
4:55 AM 32.0 °F 32.0 °F 100% 30.13 in 7.0 mi Calm Calm - N/A   Clear
5:15 AM 32.0 °F 32.0 °F 100% 30.12 in 10.0 mi Calm Calm - N/A   Clear
5:35 AM 32.0 °F 32.0 °F 100% 30.13 in 7.0 mi Calm Calm - N/A   Clear
5:55 AM 32.0 °F 32.0 °F 100% 30.12 in 7.0 mi Calm Calm - N/A   Scattered Clouds
6:15 AM 32.0 °F 32.0 °F 100% 30.12 in 7.0 mi Calm Calm - N/A   Scattered Clouds
6:35 AM 32.0 °F 32.0 °F 100% 30.13 in 7.0 mi Calm Calm - N/A   Scattered Clouds
7:15 AM 32.0 °F 32.0 °F 100% 30.12 in 7.0 mi Calm Calm - N/A   Clear
7:35 AM 32.0 °F 32.0 °F 100% 30.11 in 7.0 mi Calm Calm - N/A   Clear
7:55 AM 30.2 °F 30.2 °F 100% 30.11 in 5.0 mi Calm Calm - N/A   Clear
8:15 AM 32.0 °F 32.0 °F 100% 30.12 in 7.0 mi Calm Calm - N/A   Clear
8:35 AM 32.0 °F 32.0 °F 100% 30.12 in 10.0 mi Calm Calm - N/A   Clear
8:55 AM 33.8 °F 33.8 °F 100% 30.13 in 10.0 mi Calm Calm - N/A   Scattered Clouds
9:15 AM 35.6 °F 33.8 °F 93% 30.13 in 10.0 mi Calm Calm - N/A   Mostly Cloudy
9:35 AM 37.4 °F 35.6 °F 93% 30.12 in 10.0 mi Calm Calm - N/A   Mostly Cloudy
9:55 AM 41.0 °F 35.6 °F 81% 30.12 in 10.0 mi Calm Calm - N/A   Mostly Cloudy
10:15 AM 42.8 °F 33.8 °F 70% 30.11 in 10.0 mi Calm Calm - N/A   Overcast
10:35 AM 42.8 °F 33.8 °F 70% 30.10 in 10.0 mi Calm Calm - N/A   Mostly Cloudy
10:55 AM 46.4 °F 33.8 °F 62% 30.11 in 10.0 mi Calm Calm - N/A   Mostly Cloudy
11:15 AM 51.8 °F 32.0 °F 47% 30.12 in 10.0 mi Calm Calm - N/A   Overcast
11:55 AM 51.8 °F 32.0 °F 47% 30.11 in 10.0 mi Calm Calm - N/A   Scattered Clouds
12:15 PM 53.6 °F 32.0 °F 44% 30.10 in 10.0 mi Calm Calm - N/A   Clear
12:35 PM 53.6 °F 32.0 °F 44% 30.08 in 10.0 mi Calm Calm - N/A   Clear
12:55 PM 55.4 °F 30.2 °F 38% 30.06 in 10.0 mi NW 3.5 mph - N/A   Clear
1:15 PM 55.4 °F 30.2 °F 38% 30.06 in 10.0 mi NW 6.9 mph - N/A   Clear
1:35 PM 55.4 °F 30.2 °F 38% 30.05 in 10.0 mi NW 6.9 mph - N/A   Scattered Clouds
1:55 PM 55.4 °F 30.2 °F 38% 30.04 in 10.0 mi NW 3.5 mph - N/A   Scattered Clouds
2:15 PM 55.4 °F 30.2 °F 38% 30.05 in 10.0 mi Calm Calm - N/A   Clear
2:35 PM 55.4 °F 30.2 °F 38% 30.05 in 10.0 mi NW 4.6 mph - N/A   Clear
2:55 PM 55.4 °F 30.2 °F 38% 30.05 in 10.0 mi NW 3.5 mph - N/A   Scattered Clouds
3:15 PM 55.4 °F 28.4 °F 36% 30.06 in 10.0 mi WNW 4.6 mph - N/A   Scattered Clouds
3:35 PM 55.4 °F 28.4 °F 36% 30.06 in 10.0 mi Calm Calm - N/A   Scattered Clouds
3:55 PM 55.4 °F 28.4 °F 36% 30.06 in 10.0 mi WNW 3.5 mph - N/A   Clear
4:15 PM 55.4 °F 28.4 °F 36% 30.06 in 10.0 mi West 4.6 mph - N/A   Clear
4:35 PM 53.6 °F 28.4 °F 38% 30.06 in 10.0 mi NW 4.6 mph - N/A   Clear
4:55 PM 53.6 °F 28.4 °F 38% 30.05 in 10.0 mi Calm Calm - N/A   Scattered Clouds
5:15 PM 53.6 °F 30.2 °F 41% 30.05 in 10.0 mi Calm Calm - N/A   Clear
5:35 PM 51.8 °F 32.0 °F 47% 30.04 in 10.0 mi Calm Calm - N/A   Clear
5:55 PM 50.0 °F 33.8 °F 54% 30.05 in 10.0 mi Calm Calm - N/A   Clear
6:15 PM 48.2 °F 33.8 °F 58% 30.05 in 10.0 mi Calm Calm - N/A   Clear
6:35 PM 46.4 °F 35.6 °F 66% 30.05 in 10.0 mi Calm Calm - N/A   Clear
6:55 PM 44.6 °F 35.6 °F 71% 30.05 in 10.0 mi Calm Calm - N/A   Clear
7:15 PM 44.6 °F 35.6 °F 71% 30.05 in 10.0 mi Calm Calm - N/A   Clear
7:55 PM 42.8 °F 35.6 °F 76% 30.05 in 10.0 mi Calm Calm - N/A   Clear
8:15 PM 42.8 °F 35.6 °F 76% 30.06 in 10.0 mi Calm Calm - N/A   Clear
8:35 PM 42.8 °F 35.6 °F 76% 30.06 in 10.0 mi Calm Calm - N/A   Clear
8:55 PM 41.0 °F 35.6 °F 81% 30.06 in 10.0 mi Calm Calm - N/A   Clear
9:15 PM 41.0 °F 35.6 °F 81% 30.07 in 10.0 mi Calm Calm - N/A   Clear
9:35 PM 41.0 °F 35.6 °F 81% 30.08 in 10.0 mi Calm Calm - N/A   Clear
9:55 PM 41.0 °F 35.6 °F 81% 30.06 in 10.0 mi Calm Calm - N/A   Clear
10:15 PM 41.0 °F 35.6 °F 81% 30.06 in 10.0 mi Calm Calm - N/A   Clear
10:35 PM 41.0 °F 35.6 °F 81% 30.06 in 10.0 mi Calm Calm - N/A   Clear
10:55 PM 41.0 °F 35.6 °F 81% 30.06 in 10.0 mi Calm Calm - N/A   Clear
11:15 PM 41.0 °F 35.6 °F 81% 30.05 in 10.0 mi Calm Calm - N/A   Clear
11:35 PM 41.0 °F 35.6 °F 81% 30.04 in 10.0 mi Calm Calm - N/A   Clear
11:55 PM 41.0 °F 35.6 °F 81% 30.04 in 10.0 mi Calm Calm - N/A   Clear